Location: Niedergestelen
(46.3129°N, 7.7822°E)
Time: 20:02:13
(UTC+00:00)

ARGOS - Visible Passes

Search period start: 29 July 2021 00:00
Search period end: 08 August 2021 00:00
Orbit: 820 x 835 km, 98.4° (Epoch: 29 July)

Date Brightness Start Highest point End Pass type
(mag) Time Alt. Az. Time Alt. Az. Time Alt. Az.
31 Jul 6.0 19:46:41 10° WSW 19:49:12 13° W 19:51:44 10° WNW visible
01 Aug 5.8 19:26:29 10° SW 19:30:19 19° W 19:34:08 10° NW visible
05 Aug 6.2 19:54:52 10° WSW 19:56:23 11° W 19:57:53 10° WNW visible
06 Aug 5.9 19:34:06 10° SW 19:37:27 17° W 19:40:49 10° NW visible
07 Aug 5.6 19:14:19 10° SW 19:18:35 24° W 19:22:53 10° NW visible
